| time (UTC) | temp F | wind direction | speed MPH | gust MPH | rain 1hr in | rain 24hr in | rain mn in | humidity % | barometer mb |
| 20260509223059 | 68 | 246 | 2.0 | 7.0 | 0.00 | 0.18 | 0.12 | 57 | 1005.2 |
| 20260509221521 | 68 | 259 | 3.0 | 8.0 | 0.00 | 0.18 | 0.12 | 56 | 1005.5 |
| 20260509220050 | 68 | 255 | 2.0 | 7.0 | 0.00 | 0.18 | 0.12 | 57 | 1005.6 |
| 20260509214510 | 68 | 245 | 3.0 | 7.0 | 0.00 | 0.21 | 0.12 | 56 | 1005.6 |
| 20260509213047 | 67 | 236 | 2.0 | 10.0 | 0.00 | 0.21 | 0.12 | 59 | 1005.9 |
| 20260509211514 | 67 | 242 | 4.0 | 8.0 | 0.00 | 0.21 | 0.12 | 59 | 1005.8 |
| 20260509210112 | 67 | 208 | 2.0 | 7.0 | 0.00 | 0.21 | 0.12 | 60 | 1006.2 |
| 20260509204515 | 67 | 179 | 3.0 | 8.0 | 0.00 | 0.21 | 0.12 | 61 | 1006.3 |
| 20260509203019 | 65 | 248 | 3.0 | 6.0 | 0.00 | 0.21 | 0.12 | 62 | 1006.3 |
| 20260509201516 | 65 | 227 | 2.0 | 7.0 | 0.00 | 0.21 | 0.12 | 63 | 1006.7 |
| 20260509194515 | 65 | 128 | 2.0 | 8.0 | 0.00 | 0.21 | 0.12 | 65 | 1007.0 |
| 20260509193058 | 65 | 90 | 3.0 | 7.0 | 0.00 | 0.21 | 0.12 | 69 | 1007.0 |
| 20260509191638 | 64 | 248 | 2.0 | 8.0 | 0.00 | 0.21 | 0.12 | 67 | 1007.2 |
| 20260509190106 | 65 | 292 | 3.0 | 8.0 | 0.00 | 0.21 | 0.12 | 68 | 1007.3 |
| 20260509184521 | 63 | 301 | 3.0 | 14.0 | 0.00 | 0.21 | 0.12 | 74 | 1007.5 |
| 20260509183046 | 62 | 227 | 3.0 | 11.0 | 0.00 | 0.21 | 0.12 | 72 | 1007.6 |
| 20260509181501 | 62 | 213 | 2.0 | 8.0 | 0.00 | 0.21 | 0.12 | 75 | 1007.7 |
| 20260509180035 | 61 | 252 | 2.0 | 8.0 | 0.00 | 0.21 | 0.12 | 80 | 1007.7 |
| 20260509174612 | 59 | 112 | 2.0 | 6.0 | 0.00 | 0.21 | 0.12 | 82 | 1007.8 |
| 20260509173037 | 59 | 249 | 2.0 | 5.0 | 0.00 | 0.21 | 0.12 | 83 | 1007.9 |
| 20260509171608 | 58 | 248 | 3.0 | 7.0 | 0.00 | 0.21 | 0.12 | 87 | 1007.8 |
| 20260509170031 | 56 | 237 | 2.0 | 6.0 | 0.00 | 0.21 | 0.12 | 91 | 1007.8 |
| 20260509164602 | 56 | 210 | 2.0 | 6.0 | 0.00 | 0.21 | 0.12 | 94 | 1007.7 |
| 20260509163034 | 56 | 219 | 1.0 | 6.0 | 0.00 | 0.21 | 0.12 | 96 | 1007.7 |
| 20260509161605 | 55 | 285 | 1.0 | 7.0 | 0.00 | 0.21 | 0.12 | 96 | 1007.7 |
| 20260509160033 | 54 | 254 | 0.0 | 4.0 | 0.01 | 0.21 | 0.12 | 97 | 1007.7 |
| 20260509154602 | 53 | 198 | 0.0 | 4.0 | 0.02 | 0.21 | 0.12 | 97 | 1007.7 |
| 20260509153021 | 53 | 167 | 1.0 | 6.0 | 0.04 | 0.21 | 0.12 | 97 | 1007.7 |
| 20260509151552 | 53 | 233 | 0.0 | 3.0 | 0.05 | 0.21 | 0.12 | 97 | 1007.6 |
| 20260509150025 | 52 | 223 | 0.0 | 5.0 | 0.04 | 0.20 | 0.11 | 97 | 1007.7 |
| 20260509144547 | 51 | 241 | 0.0 | 4.0 | 0.03 | 0.19 | 0.10 | 97 | 1007.8 |
| 20260509143015 | 51 | 251 | 0.0 | 2.0 | 0.01 | 0.17 | 0.08 | 97 | 1007.8 |
| 20260509141553 | 51 | 248 | 0.0 | 3.0 | 0.01 | 0.16 | 0.07 | 97 | 1007.8 |
| 20260509140023 | 51 | 251 | 0.0 | 3.0 | 0.02 | 0.16 | 0.07 | 97 | 1007.8 |
| 20260509134628 | 51 | 229 | 0.0 | 4.0 | 0.03 | 0.16 | 0.07 | 97 | 1007.9 |
| 20260509133027 | 50 | 241 | 0.0 | 5.0 | 0.04 | 0.16 | 0.07 | 97 | 1008.0 |
| 20260509131607 | 50 | 162 | 2.0 | 7.0 | 0.04 | 0.15 | 0.06 | 97 | 1008.0 |
| 20260509130033 | 50 | 235 | 1.0 | 4.0 | 0.03 | 0.14 | 0.05 | 97 | 1008.1 |
| 20260509124541 | 50 | 238 | 1.0 | 3.0 | 0.02 | 0.13 | 0.04 | 97 | 1008.1 |
| 20260509123008 | 50 | 231 | 0.0 | 2.0 | 0.01 | 0.12 | 0.03 | 97 | 1008.2 |
| 20260509121554 | 50 | 207 | 1.0 | 4.0 | 0.00 | 0.11 | 0.02 | 97 | 1008.1 |
| 20260509120012 | 50 | 313 | 0.0 | 2.0 | 0.00 | 0.11 | 0.02 | 97 | 1008.1 |
| 20260509114657 | 50 | 249 | 0.0 | 3.0 | 0.00 | 0.11 | 0.02 | 97 | 1008.1 |
| 20260509113013 | 49 | 255 | 1.0 | 5.0 | 0.00 | 0.11 | 0.02 | 97 | 1008.2 |
| 20260509111544 | 49 | 266 | 0.0 | 3.0 | 0.00 | 0.11 | 0.02 | 97 | 1008.0 |
| 20260509110029 | 49 | 163 | 0.0 | 2.0 | 0.00 | 0.11 | 0.02 | 97 | 1008.0 |
| 20260509104601 | 48 | 159 | 0.0 | 2.0 | 0.00 | 0.11 | 0.02 | 97 | 1008.0 |
| 20260509103024 | 48 | 157 | 0.0 | 0.0 | 0.00 | 0.11 | 0.02 | 97 | 1007.9 |
| 20260509101605 | 48 | 157 | 0.0 | 0.0 | 0.00 | 0.11 | 0.02 | 96 | 1007.9 |
| 20260509100035 | 47 | 157 | 0.0 | 0.0 | 0.00 | 0.11 | 0.02 | 96 | 1008.0 |
| 20260509094609 | 47 | 157 | 0.0 | 0.0 | 0.00 | 0.11 | 0.02 | 97 | 1008.2 |
| 20260509093004 | 47 | 157 | 0.0 | 0.0 | 0.01 | 0.11 | 0.02 | 96 | 1008.3 |
| 20260509091528 | 47 | 157 | 0.0 | 0.0 | 0.01 | 0.11 | 0.02 | 96 | 1008.3 |
| 20260509090104 | 47 | 157 | 0.0 | 0.0 | 0.01 | 0.11 | 0.02 | 96 | 1008.6 |
| 20260509084530 | 47 | 157 | 0.0 | 0.0 | 0.01 | 0.11 | 0.02 | 96 | 1008.7 |
| 20260509083104 | 47 | 157 | 0.0 | 0.0 | 0.00 | 0.10 | 0.01 | 96 | 1008.8 |
| 20260509081534 | 47 | 157 | 0.0 | 0.0 | 0.00 | 0.10 | 0.01 | 96 | 1008.8 |
| 20260509080105 | 47 | 157 | 0.0 | 0.0 | 0.00 | 0.10 | 0.01 | 96 | 1008.9 |
| 20260509074531 | 47 | 157 | 0.0 | 0.0 | 0.00 | 0.10 | 0.01 | 96 | 1008.8 |
| 20260509073109 | 47 | 157 | 0.0 | 1.0 | 0.00 | 0.10 | 0.01 | 96 | 1008.9 |
| 20260509071532 | 47 | 321 | 0.0 | 1.0 | 0.00 | 0.10 | 0.01 | 96 | 1008.8 |
| 20260509070108 | 47 | 324 | 0.0 | 0.0 | 0.00 | 0.10 | 0.01 | 96 | 1008.8 |
| 20260509064535 | 47 | 324 | 0.0 | 0.0 | 0.00 | 0.10 | 0.01 | 96 | 1008.8 |
| 20260509063110 | 47 | 325 | 0.0 | 0.0 | 0.00 | 0.10 | 0.01 | 96 | 1009.1 |
| 20260509061542 | 48 | 324 | 0.0 | 0.0 | 0.00 | 0.10 | 0.01 | 96 | 1009.1 |
| 20260509060004 | 48 | 324 | 0.0 | 0.0 | 0.00 | 0.10 | 0.01 | 96 | 1009.3 |
| 20260509054543 | 48 | 324 | 0.0 | 0.0 | 0.00 | 0.10 | 0.01 | 96 | 1009.7 |
| 20260509053007 | 48 | 324 | 0.0 | 0.0 | 0.00 | 0.10 | 0.01 | 96 | 1009.9 |
| 20260509051538 | 48 | 325 | 0.0 | 0.0 | 0.00 | 0.10 | 0.01 | 95 | 1010.1 |
| 20260509050002 | 48 | 324 | 0.0 | 0.0 | 0.00 | 0.00 | 0.01 | 96 | 1010.2 |
| 20260509044536 | 48 | 325 | 0.0 | 0.0 | 0.01 | 0.10 | 0.01 | 95 | 1010.1 |
| 20260509043110 | 48 | 324 | 0.0 | 0.0 | 0.01 | 0.10 | 0.01 | 95 | 1010.4 |
| 20260509041538 | 48 | 325 | 0.0 | 0.0 | 0.01 | 0.10 | 0.01 | 95 | 1010.6 |
| 20260509040109 | 48 | 324 | 0.0 | 0.0 | 0.01 | 0.09 | 0.00 | 95 | 1010.8 |
| 20260509034546 | 48 | 324 | 0.0 | 0.0 | 0.01 | 0.09 | 0.09 | 95 | 1011.0 |
| 20260509033058 | 48 | 324 | 0.0 | 0.0 | 0.02 | 0.09 | 0.09 | 95 | 1011.2 |
| 20260509031509 | 49 | 325 | 0.0 | 0.0 | 0.03 | 0.09 | 0.09 | 95 | 1011.3 |
| 20260509030155 | 49 | 324 | 0.0 | 0.0 | 0.03 | 0.08 | 0.08 | 95 | 1011.5 |
| 20260509024516 | 49 | 324 | 0.0 | 0.0 | 0.04 | 0.08 | 0.08 | 95 | 1011.8 |
| 20260509023113 | 49 | 324 | 0.0 | 0.0 | 0.03 | 0.07 | 0.07 | 94 | 1012.0 |
| 20260509021556 | 49 | 324 | 0.0 | 0.0 | 0.02 | 0.06 | 0.06 | 94 | 1012.0 |
| 20260509020021 | 49 | 324 | 0.0 | 0.0 | 0.02 | 0.05 | 0.05 | 94 | 1011.9 |
| 20260509014558 | 49 | 324 | 0.0 | 2.0 | 0.01 | 0.04 | 0.04 | 94 | 1011.7 |
| 20260509013022 | 49 | 324 | 0.0 | 0.0 | 0.01 | 0.04 | 0.04 | 93 | 1010.9 |
| 20260509011607 | 50 | 326 | 0.0 | 1.0 | 0.00 | 0.03 | 0.03 | 93 | 1010.8 |
| 20260509010038 | 50 | 326 | 0.0 | 1.0 | 0.00 | 0.03 | 0.03 | 93 | 1010.7 |
| 20260509004501 | 50 | 326 | 0.0 | 2.0 | 0.00 | 0.03 | 0.03 | 93 | 1010.6 |
| 20260509003032 | 50 | 213 | 0.0 | 2.0 | 0.00 | 0.03 | 0.03 | 92 | 1010.5 |
| 20260509001611 | 50 | 213 | 0.0 | 0.0 | 0.00 | 0.03 | 0.03 | 92 | 1010.3 |
| 20260509000037 | 51 | 213 | 0.0 | 0.0 | 0.00 | 0.03 | 0.03 | 92 | 1010.2 |
| 20260508234612 | 51 | 213 | 0.0 | 0.0 | 0.00 | 0.03 | 0.03 | 91 | 1010.1 |
| 20260508233033 | 51 | 213 | 0.0 | 0.0 | 0.00 | 0.03 | 0.03 | 91 | 1010.1 |
| 20260508231606 | 51 | 213 | 0.0 | 0.0 | 0.00 | 0.03 | 0.03 | 91 | 1009.9 |
| 20260508230035 | 51 | 213 | 0.0 | 0.0 | 0.00 | 0.03 | 0.03 | 90 | 1010.5 |
| 20260508224607 | 52 | 213 | 0.0 | 0.0 | 0.00 | 0.03 | 0.03 | 90 | 1010.5 |